General Mariano Matamoros Airport

Jump to: basic info | weather | frequencies | runways | comments

Related pages: nearby airports | nearby navaids | notams | map

Basic information (top)

Codes: CVJ MMCB
Location: lon 18.834801, lat -99.261299, elev 4,277 ft / 1,304 m msl
Status: medium_airport
Scheduled airline service: yes
Links: Wikipedia Mobile

Weather (top)

Current conditions (rec'd 2014/09/02 04:43Z):

MMCB 020443Z 04004KT 2SM TS RA OVC010CB 18/18 A3019 RMK 8/9//

Airport forecast (rec'd 2014/08/30 18:39Z):

TAF MMCB 301639Z 3018/3118 20010KT 6SM HZ BKN020 BKN120 BKN220 
      BECMG 3020/3021 6SM -RA BKN020CB OVC080 
      TEMPO 3022/3102 2SM TSRA BKN010CB OVC070 
     FM310900 00000KT 4SM BR HZ BKN010 OVC020 
     FM311500 15006KT 6SM HZ BKN020 BKN100 BKN220

Frequencies (top)

Verify before use: may be inaccurate or out of date.

APP: 128.9 MHz (TOLUCA APP)
TWR: 118.35 MHz (CUERNAVACA TWR)

Runways (top)

02/20: 9,439 x 148 ft (2,877 x 45 m) — paved — lighted — threshold 20 displaced 260 ft (79 m)

Latest comments (top)

No comments yet for General Mariano Matamoros Airport

More... (top)

See also NOTAMs and nearby airports and navaids, or visit the General Mariano Matamoros Airport page at the main OurAirports website..